FIN61 EFHK-RJTT

Flight info

Callsign FIN61
Flight time N/A
Altitude 34000
Route TEVRU Y75 USUPO DCT BARUX DCT 80N021E/N0496F360 82N020E/M085F360 8930N06000W/N0492F360 DCT DEKMO/N0496F370 DCT 80N165W DCT JUJXI/N0491F380 DCT MARCC R338 MORLY/N0496F400 DCT HAXIT M523 IPGUD Y800 ESNIP Y810 AKRIT Y807 POLIX
Aircraft A359/H-SDE2E3GHIJ3J4J5LM1ORWXY/LB1D1

Departure

Time 2026-05-06 03:59
Airport Helsinki Vantaa Airport (EFHK)

Arrival

Time N/A
Airport Tokyo Haneda International Airport (RJTT)
Time Latitude Longitude Altitude Speed Heading
2026-05-06 03:33 60.31435 24.95977 173 ft 0 kts 343°
2026-05-06 03:44 60.31413 24.95990 173 ft 4 kts 343°
2026-05-06 03:45 60.31388 24.96007 173 ft 4 kts 335°
2026-05-06 03:45 60.31367 24.96034 173 ft 4 kts 297°
2026-05-06 03:45 60.31363 24.96082 173 ft 4 kts 282°
2026-05-06 03:45 60.31354 24.96132 173 ft 4 kts 304°
2026-05-06 03:46 60.31336 24.96173 173 ft 4 kts 321°
2026-05-06 03:46 60.31314 24.96205 173 ft 4 kts 324°
2026-05-06 03:46 60.31303 24.96221 173 ft 0 kts 317°
2026-05-06 03:49 60.31304 24.96221 173 ft 0 kts 317°
2026-05-06 03:49 60.31320 24.96190 173 ft 7 kts 317°
2026-05-06 03:50 60.31348 24.96134 173 ft 9 kts 308°
2026-05-06 03:50 60.31352 24.96022 173 ft 8 kts 249°
2026-05-06 03:50 60.31316 24.95934 173 ft 8 kts 227°
2026-05-06 03:50 60.31276 24.95845 173 ft 9 kts 227°
2026-05-06 03:51 60.31234 24.95751 173 ft 9 kts 227°
2026-05-06 03:51 60.31188 24.95651 173 ft 10 kts 227°
2026-05-06 03:51 60.31166 24.95538 172 ft 8 kts 289°
2026-05-06 03:51 60.31210 24.95435 172 ft 13 kts 317°
2026-05-06 03:52 60.31296 24.95277 172 ft 20 kts 317°
2026-05-06 03:52 60.31402 24.95072 173 ft 20 kts 311°
2026-05-06 03:52 60.31504 24.95029 175 ft 16 kts 37°
2026-05-06 03:52 60.31593 24.95220 176 ft 24 kts 47°
2026-05-06 03:53 60.31725 24.95511 177 ft 30 kts 47°
2026-05-06 03:53 60.31866 24.95820 175 ft 30 kts 47°
2026-05-06 03:53 60.32005 24.96127 174 ft 30 kts 47°
2026-05-06 03:53 60.32140 24.96426 174 ft 23 kts 47°
2026-05-06 03:54 60.32237 24.96638 174 ft 19 kts 47°
2026-05-06 03:54 60.32304 24.96663 174 ft 7 kts 337°
2026-05-06 03:54 60.32354 24.96607 178 ft 9 kts 330°
2026-05-06 03:54 60.32421 24.96530 181 ft 14 kts 330°
2026-05-06 03:55 60.32531 24.96402 180 ft 22 kts 329°
2026-05-06 03:55 60.32677 24.96231 178 ft 25 kts 330°
2026-05-06 03:55 60.32828 24.96055 180 ft 24 kts 330°
2026-05-06 03:55 60.32968 24.95890 192 ft 22 kts 330°
2026-05-06 03:56 60.33089 24.95737 198 ft 21 kts 318°
2026-05-06 03:56 60.33192 24.95536 202 ft 19 kts 304°
2026-05-06 03:56 60.33170 24.95309 190 ft 19 kts 228°
2026-05-06 03:56 60.33110 24.95077 197 ft 19 kts 265°
2026-05-06 03:57 60.33113 24.94830 198 ft 16 kts 273°
2026-05-06 03:57 60.33117 24.94630 191 ft 12 kts 272°
2026-05-06 03:57 60.33119 24.94484 196 ft 9 kts 267°
2026-05-06 03:57 60.33103 24.94370 210 ft 9 kts 240°
2026-05-06 03:58 60.33059 24.94268 207 ft 12 kts 227°
2026-05-06 03:58 60.32891 24.93897 205 ft 70 kts 227°
2026-05-06 03:58 60.32395 24.92808 178 ft 139 kts 227°
2026-05-06 03:58 60.31631 24.91117 426 ft 171 kts 228°
2026-05-06 03:59 60.30917 24.89327 1400 ft 160 kts 248°
2026-05-06 03:59 60.30833 24.87123 1788 ft 168 kts 283°
2026-05-06 03:59 60.31099 24.84724 2036 ft 184 kts 283°
2026-05-06 03:59 60.31375 24.82092 2307 ft 199 kts 282°
2026-05-06 04:00 60.31645 24.79235 2579 ft 217 kts 281°
2026-05-06 04:00 60.32126 24.76239 2874 ft 233 kts 295°
2026-05-06 04:00 60.32901 24.73311 3404 ft 239 kts 299°
2026-05-06 04:00 60.33731 24.70376 4050 ft 242 kts 299°
2026-05-06 04:01 60.34570 24.67408 4656 ft 246 kts 300°
2026-05-06 04:01 60.35608 24.64638 5067 ft 250 kts 316°
2026-05-06 04:01 60.37105 24.62860 5667 ft 255 kts 340°
2026-05-06 04:01 60.38874 24.62524 6360 ft 261 kts
2026-05-06 04:02 60.40681 24.63201 6997 ft 265 kts
2026-05-06 04:02 60.42488 24.64072 7605 ft 269 kts
2026-05-06 04:02 60.43692 24.64655 8012 ft 271 kts
2026-05-06 04:02 60.46171 24.65831 8865 ft 275 kts
2026-05-06 04:03 60.48048 24.66706 9524 ft 278 kts
2026-05-06 04:03 60.49305 24.67288 9941 ft 281 kts
2026-05-06 04:03 60.51926 24.68487 10402 ft 298 kts
2026-05-06 04:03 60.54000 24.69433 10700 ft 313 kts
2026-05-06 04:04 60.56169 24.70425 10990 ft 327 kts
2026-05-06 04:04 60.58432 24.71464 11280 ft 340 kts
2026-05-06 04:04 60.60785 24.72548 11555 ft 353 kts
2026-05-06 04:04 60.63219 24.73670 11818 ft 365 kts
2026-05-06 04:05 60.65734 24.74833 12107 ft 375 kts
2026-05-06 04:05 60.68298 24.76024 12557 ft 380 kts
2026-05-06 04:05 60.70893 24.77231 13058 ft 384 kts
2026-05-06 04:05 60.73510 24.78448 13552 ft 388 kts
2026-05-06 04:06 60.76153 24.79679 14027 ft 391 kts
2026-05-06 04:06 60.78826 24.80924 14401 ft 396 kts
2026-05-06 04:06 60.81530 24.82151 14782 ft 399 kts
2026-05-06 04:06 60.84275 24.83098 15214 ft 401 kts
2026-05-06 04:07 60.87056 24.83836 15614 ft 404 kts 359°
2026-05-06 04:07 60.89857 24.84470 16016 ft 407 kts 358°
2026-05-06 04:07 60.92682 24.85073 16415 ft 411 kts 358°
2026-05-06 04:07 60.95539 24.85686 16795 ft 415 kts 357°
2026-05-06 04:08 60.98379 24.86314 17228 ft 417 kts 357°
2026-05-06 04:08 61.01274 24.86980 17700 ft 420 kts 357°
2026-05-06 04:08 61.04226 24.87671 18062 ft 424 kts 356°
2026-05-06 04:08 61.07129 24.88360 18398 ft 427 kts 356°
2026-05-06 04:09 61.10095 24.89071 18725 ft 430 kts 356°
2026-05-06 04:09 61.13077 24.89791 19060 ft 433 kts 356°
2026-05-06 04:09 61.16076 24.90516 19517 ft 434 kts 357°
2026-05-06 04:09 61.19082 24.91246 19897 ft 436 kts 356°
2026-05-06 04:10 61.22108 24.91976 20232 ft 439 kts 356°
2026-05-06 04:10 61.25157 24.92704 20572 ft 442 kts 356°
2026-05-06 04:10 61.28225 24.93441 20895 ft 445 kts 356°
2026-05-06 04:10 61.31300 24.94186 21237 ft 448 kts 355°
2026-05-06 04:11 61.34407 24.94941 21557 ft 451 kts 355°
2026-05-06 04:11 61.37534 24.95703 21896 ft 453 kts 355°
2026-05-06 04:11 61.40674 24.96468 22207 ft 456 kts 355°
2026-05-06 04:11 61.43839 24.97242 22527 ft 459 kts 354°
2026-05-06 04:12 61.47023 24.98020 22938 ft 461 kts 355°
2026-05-06 04:12 61.50216 24.98804 23256 ft 464 kts 355°
2026-05-06 04:12 61.53440 24.99597 23534 ft 467 kts 354°
2026-05-06 04:12 61.56676 25.00395 23787 ft 469 kts 355°
2026-05-06 04:13 61.59923 25.01142 24033 ft 467 kts 352°
2026-05-06 04:13 61.62067 25.01328 24204 ft 464 kts 349°
2026-05-06 04:13 61.66379 25.01423 24566 ft 464 kts 348°
2026-05-06 04:13 61.69616 25.01388 24837 ft 465 kts 347°
2026-05-06 04:14 61.72854 25.01305 25086 ft 466 kts 347°
2026-05-06 04:14 61.76102 25.01200 25342 ft 468 kts 347°
2026-05-06 04:14 61.78263 25.01125 25549 ft 470 kts 348°
2026-05-06 04:14 61.82668 25.00977 25907 ft 474 kts 350°
2026-05-06 04:15 61.85963 25.00884 26245 ft 475 kts 350°
2026-05-06 04:15 61.88156 25.00825 26411 ft 476 kts 350°
2026-05-06 04:15 61.91478 25.00736 26655 ft 478 kts 350°
2026-05-06 04:15 61.95943 25.00616 26992 ft 481 kts 350°
2026-05-06 04:16 61.99301 25.00526 27226 ft 484 kts 350°
2026-05-06 04:16 62.02624 25.00436 27462 ft 486 kts 350°
2026-05-06 04:16 62.06009 25.00344 27708 ft 488 kts 350°
2026-05-06 04:16 62.09412 25.00252 27975 ft 490 kts 350°
2026-05-06 04:17 62.12830 25.00159 28141 ft 493 kts 351°
2026-05-06 04:17 62.16272 25.00066 28334 ft 496 kts 351°
2026-05-06 04:17 62.19727 24.99972 28550 ft 497 kts 351°
2026-05-06 04:17 62.23193 24.99878 28735 ft 499 kts 351°
2026-05-06 04:18 62.26675 24.99783 28939 ft 501 kts 351°
2026-05-06 04:18 62.30163 24.99689 29189 ft 501 kts 351°
2026-05-06 04:18 62.33644 24.99596 29465 ft 501 kts 351°
2026-05-06 04:18 62.37133 24.99503 29728 ft 501 kts 351°
2026-05-06 04:19 62.40620 24.99409 29952 ft 501 kts 351°
2026-05-06 04:19 62.44108 24.99312 30173 ft 501 kts 351°
2026-05-06 04:19 62.47591 24.99216 30376 ft 501 kts 351°
2026-05-06 04:19 62.51076 24.99118 30628 ft 501 kts 352°
2026-05-06 04:20 62.54554 24.99020 30866 ft 500 kts 352°
2026-05-06 04:20 62.58030 24.98923 31057 ft 500 kts 352°
2026-05-06 04:20 62.61515 24.98826 31238 ft 500 kts 352°
2026-05-06 04:20 62.63811 24.98762 31370 ft 500 kts 352°
2026-05-06 04:21 62.68475 24.98630 31620 ft 500 kts 352°
2026-05-06 04:21 62.71956 24.98532 31805 ft 500 kts 352°
2026-05-06 04:21 62.75442 24.98433 31998 ft 500 kts 352°
2026-05-06 04:21 62.77740 24.98366 32097 ft 501 kts 353°
2026-05-06 04:22 62.82414 24.98231 32280 ft 502 kts 353°
2026-05-06 04:22 62.85899 24.98132 32453 ft 502 kts 353°
2026-05-06 04:22 62.89393 24.98034 32625 ft 501 kts 353°
2026-05-06 04:23 62.95190 24.97868 32898 ft 501 kts 353°
2026-05-06 04:23 62.98675 24.97768 33036 ft 501 kts 353°
2026-05-06 04:23 63.02165 24.97667 33190 ft 501 kts 353°
2026-05-06 04:23 63.05649 24.97566 33334 ft 501 kts 353°
2026-05-06 04:24 63.09133 24.97465 33479 ft 501 kts 353°
2026-05-06 04:24 63.12620 24.97363 33676 ft 501 kts 353°
2026-05-06 04:24 63.16107 24.97262 33794 ft 502 kts 353°
2026-05-06 04:25 63.23136 24.97048 33821 ft 508 kts 354°
2026-05-06 04:25 63.30210 24.96841 33802 ft 508 kts 354°
2026-05-06 04:26 63.37274 24.96637 33806 ft 507 kts 354°
2026-05-06 04:26 63.44339 24.96428 33819 ft 508 kts 354°
2026-05-06 04:27 63.51407 24.96216 33790 ft 509 kts 354°
2026-05-06 04:27 63.58490 24.96003 33784 ft 509 kts 354°
2026-05-06 04:28 63.65567 24.95790 33781 ft 509 kts 354°
2026-05-06 04:28 63.72605 24.95577 33779 ft 509 kts 354°
2026-05-06 04:29 63.79692 24.95361 33775 ft 509 kts 354°
2026-05-06 04:29 63.86791 24.95142 33768 ft 511 kts 354°
2026-05-06 04:30 63.93892 24.94924 33771 ft 511 kts 354°
2026-05-06 04:30 64.01004 24.94705 33758 ft 511 kts 354°
2026-05-06 04:31 64.08109 24.94485 33755 ft 511 kts 354°
2026-05-06 04:31 64.15218 24.94263 33741 ft 510 kts 355°
2026-05-06 04:32 64.22307 24.94041 33744 ft 509 kts 355°
2026-05-06 04:32 64.29394 24.93817 33735 ft 509 kts 355°
2026-05-06 04:33 64.36477 24.93591 33732 ft 509 kts 355°
2026-05-06 04:33 64.43553 24.93365 33722 ft 509 kts 355°
2026-05-06 04:34 64.50596 24.93139 33723 ft 509 kts 355°
2026-05-06 04:34 64.57672 24.92911 33713 ft 509 kts 355°
2026-05-06 04:35 64.64762 24.92681 33722 ft 509 kts 355°
2026-05-06 04:35 64.71818 24.92453 33708 ft 507 kts 355°
2026-05-06 04:36 64.78870 24.92222 33706 ft 507 kts 355°
2026-05-06 04:36 64.85917 24.91989 33694 ft 506 kts 356°
2026-05-06 04:37 64.92963 24.91756 33697 ft 506 kts 356°
2026-05-06 04:37 65.00015 24.91522 33688 ft 506 kts 356°
2026-05-06 04:38 65.07058 24.91286 33689 ft 506 kts 356°
2026-05-06 04:38 65.14101 24.91049 33683 ft 506 kts 356°
2026-05-06 04:39 65.21104 24.90812 33686 ft 507 kts 356°
2026-05-06 04:39 65.28189 24.90571 33685 ft 507 kts 356°
2026-05-06 04:40 65.35202 24.90332 33686 ft 507 kts 356°
2026-05-06 04:40 65.42246 24.90091 33683 ft 506 kts 356°
2026-05-06 04:41 65.49296 24.89847 33687 ft 506 kts 356°
2026-05-06 04:41 65.56348 24.89602 33679 ft 507 kts 356°
2026-05-06 04:42 65.63391 24.89357 33684 ft 506 kts 356°
2026-05-06 04:42 65.70439 24.89110 33696 ft 506 kts 356°
2026-05-06 04:43 65.77488 24.88861 33699 ft 506 kts 356°
2026-05-06 04:43 65.84539 24.88611 33692 ft 506 kts 356°
2026-05-06 04:44 65.91586 24.88359 33699 ft 506 kts 356°
2026-05-06 04:44 65.98637 24.88106 33703 ft 506 kts 356°
2026-05-06 04:45 66.05678 24.87852 33690 ft 506 kts 356°
2026-05-06 04:45 66.12726 24.87596 33703 ft 506 kts 356°
2026-05-06 04:46 66.19770 24.87340 33707 ft 506 kts 356°
2026-05-06 04:46 66.26763 24.87083 33709 ft 506 kts 356°
2026-05-06 04:47 66.33798 24.86824 33703 ft 506 kts 356°
2026-05-06 04:47 66.40842 24.86564 33713 ft 506 kts 356°
2026-05-06 04:48 66.47873 24.86302 33712 ft 506 kts 356°
2026-05-06 04:48 66.54917 24.86037 33718 ft 506 kts 356°
2026-05-06 04:49 66.61953 24.85771 33714 ft 505 kts 356°
2026-05-06 04:49 66.68984 24.85505 33724 ft 505 kts 356°
2026-05-06 04:50 66.76001 24.85238 33726 ft 505 kts 356°
2026-05-06 04:50 66.83036 24.84967 33735 ft 505 kts 356°
2026-05-06 04:51 66.90060 24.84696 33726 ft 505 kts 356°
2026-05-06 04:51 66.97081 24.84423 33738 ft 504 kts 357°
2026-05-06 04:52 67.04104 24.84149 33731 ft 505 kts 357°
2026-05-06 04:52 67.11120 24.83874 33738 ft 505 kts 357°
2026-05-06 04:53 67.18149 24.83597 33741 ft 505 kts 357°
2026-05-06 04:53 67.25164 24.83319 33739 ft 505 kts 357°
2026-05-06 04:54 67.32185 24.83037 33749 ft 505 kts 357°
2026-05-06 04:54 67.39209 24.82754 33755 ft 505 kts 357°
2026-05-06 04:55 67.46233 24.82470 33756 ft 505 kts 357°
2026-05-06 04:55 67.53266 24.82185 33711 ft 505 kts 357°
2026-05-06 04:56 67.60286 24.81899 33687 ft 505 kts 357°
2026-05-06 04:56 67.67260 24.81611 33719 ft 504 kts 357°
2026-05-06 04:57 67.74272 24.81321 33718 ft 504 kts 357°
2026-05-06 04:57 67.80144 24.81077 33723 ft 504 kts 357°
2026-05-06 04:58 67.88300 24.80735 33734 ft 504 kts 357°
2026-05-06 04:58 67.95309 24.80440 33745 ft 504 kts 357°
2026-05-06 04:59 68.02323 24.80142 33764 ft 504 kts 357°
2026-05-06 04:59 68.09321 24.79844 33762 ft 503 kts 357°
2026-05-06 05:00 68.16339 24.79543 33765 ft 503 kts 357°
2026-05-06 05:00 68.23340 24.79241 33766 ft 504 kts 357°
2026-05-06 05:01 68.30349 24.78937 33764 ft 504 kts 357°
2026-05-06 05:01 68.37356 24.78630 33775 ft 503 kts 358°